Location: Wells
(51.2093°N, 2.6446°W)
Time: 07:59:58
(UTC+01:00)

CUBEBUG 2 - Pass Details

Date: 20 March 2026
Orbit: 548 x 627 km, 97.9° (Epoch: 14 April)

Event Time Altitude Azimuth Distance (km) Brightness Sun altitude
Rises 04:08:46 0° 2° (N) 2,908 ? -19.7°
Reaches altitude 10° 04:11:32 10° 343° (NNW) 2,006 ? -19.3°
Enters shadow 04:14:05 18° 308° (NW) 1,569 ? -19.0°
